Lid_Strength_Index
2 2 3 3 3 2 2 2 2 2 1 1 1 1 1 1 1 2 5 4 2 -2 -1 2 3 3 4 4 4 4 8 8 7 7 7 5 7 5 5 6 6 5 5 5 4
2 2 2 2 3 3 3 2 2 2 1 1 1 1 1 1 2 5 4 -2 -2 -3 2 4 4 4 5 5 5 7 8 7 6 6 7 7 7 7 7 7 7 6 5 5 4
2 2 2 3 2 2 3 2 2 2 2 1 1 1 1 2 4 5 -1 -2 -2 -1 3 4 4 4 5 5 6 6 8 7 7 7 7 7 7 6 8 8 6 7 6 5 5
3 3 3 3 3 3 3 3 2 2 2 2 1 1 1 3 8 5 -2 -2 -3 1 3 5 5 6 6 7 6 8 7 7 7 7 7 8 7 8 7 7 6 6 6 5 5
2 3 3 3 3 3 2 3 3 3 2 2 1 1 4 5 6 4 -3 -1 2 3 5 6 6 6 7 7 7 7 7 6 6 7 7 7 7 7 7 6 5 5 5 6 5
2 2 3 3 3 3 3 3 3 3 2 2 1 2 4 6 3 3 3 3 4 4 5 5 6 6 7 7 7 6 6 7 7 7 7 7 7 7 7 5 6 6 6 5 5
2 3 3 3 3 3 3 3 3 2 2 1 1 2 4 5 3 3 3 4 4 4 5 5 5 6 6 7 6 7 9 8 7 7 7 7 9 8 6 6 6 6 5 5 5
3 3 3 3 3 3 3 3 3 2 1 0 1 3 5 3 3 3 3 4 3 3 4 4 4 6 6 6 7 9 8 10 7 7 7 8 11 7 6 6 6 5 5 5 4
3 3 3 3 2 3 3 3 2 1 0 0 2 3 6 4 5 3 3 4 4 4 3 4 5 6 6 9 9 8 10 9 8 6 7 8 10 7 5 5 6 5 5 4 3
3 3 3 3 3 3 4 4 2 1 1 2 3 6 5 6 4 4 3 4 5 5 6 6 6 8 8 9 12 10 10 9 10 8 7 8 9 7 6 5 5 5 5 4 4
3 3 3 3 3 3 4 3 5 5 4 5 5 6 6 5 4 5 4 5 5 6 8 6 8 10 8 7 8 9 10 10 9 7 8 8 8 7 6 5 5 5 4 4 4
3 3 3 3 3 4 4 4 4 4 7 4 4 4 4 4 7 6 4 7 7 8 7 8 10 8 7 8 9 10 10 10 8 7 8 9 9 7 6 5 5 5 4 4 4
3 3 3 3 3 4 4 4 2 2 7 5 5 5 5 5 7 7 5 6 7 9 8 9 8 7 8 9 10 10 10 9 9 8 8 9 9 7 6 6 5 4 4 4 4
3 2 2 3 3 2 4 3 2 2 9 8 6 5 5 5 7 5 4 6 8 9 9 8 7 8 9 10 9 11 8 9 9 10 12 7 13 8 7 7 6 5 4 4 4
3 2 2 3 1 3 2 1 2 2 14 6 6 3 4 6 6 6 4 6 9 9 8 10 9 9 10 9 8 9 8 9 9 10 10 10 11 9 7 8 7 5 4 4 4
3 3 2 0 -0 0 -0 0 1 9 13 7 6 7 7 6 6 5 6 5 6 8 8 8 6 8 8 8 8 7 9 9 8 9 15 11 11 10 9 7 6 5 5 4 4
3 3 3 0 2 -0 0 2 9 12 6 8 8 7 8 8 7 7 7 8 9 11 10 9 8 7 7 9 8 8 10 16 16 15 16 9 11 10 7 6 6 6 5 4 4
4 4 1 -1 -1 -1 1 6 12 8 8 5 7 7 9 8 7 7 8 9 7 8 9 11 11 8 7 9 9 8 9 14 19 17 13 10 12 9 7 6 5 5 5 4 4
5 2 1 0 -1 -1 4 10 10 8 6 7 7 9 9 8 8 7 8 8 7 7 10 10 11 7 7 7 8 9 11 8 13 12 14 11 9 7 7 7 6 6 5 5 4
4 2 2 -1 -1 1 6 10 7 5 5 6 9 7 9 9 9 8 8 7 7 6 5 8 11 8 7 7 7 8 7 13 13 18 18 12 11 11 9 8 7 6 5 5 4
4 6 1 -1 -1 4 9 8 6 5 5 6 7 8 8 8 9 8 8 7 6 6 6 7 9 9 8 9 10 10 10 10 10 12 17 17 13 8 8 7 7 6 5 5 4
5 8 2 2 8 6 8 6 6 5 4 5 6 7 7 7 8 8 8 7 5 5 8 7 9 13 10 7 7 7 9 9 16 15 13 13 14 6 6 6 5 6 5 4 4
7 7 3 3 9 8 6 7 6 7 6 6 7 6 6 7 10 8 8 5 5 6 7 6 11 15 12 9 8 9 8 8 9 11 14 17 14 6 6 6 6 6 5 4 4
8 10 7 5 5 7 7 7 8 5 6 5 6 6 7 8 7 9 8 6 5 6 5 5 9 12 15 12 9 11 10 9 10 15 14 13 12 9 7 7 6 5 5 4 4
7 9 8 11 9 8 7 8 9 9 6 5 7 8 8 12 9 9 7 7 6 6 6 7 12 10 9 9 9 9 10 9 10 10 14 12 11 9 7 7 6 5 5 5 5
8 8 7 8 7 8 9 10 9 8 7 7 8 8 9 11 10 12 9 8 8 6 7 7 11 10 11 9 9 10 9 9 9 9 10 10 10 6 5 5 6 5 5 6 5
5 5 7 8 9 10 9 9 8 6 6 5 6 9 10 9 7 7 7 7 6 8 8 9 11 12 15 10 10 13 10 9 8 8 8 11 8 6 7 6 6 6 5 6 6